Weather History for Cleveland Municipal Airport, MS

Change the Weather History Date:

Thursday, February 6, 2014

  Actual Average (KGLH) Record (KGLH)
Temperature  
Mean Temperature 26 °F 44 °F  
Max Temperature 29 °F 55 °F 78 °F (1921)
Min Temperature 24 °F 34 °F 13 °F (1988)
Degree Days  
Heating Degree Days 38 21  
Month to date heating degree days 129  
Since 1 July heating degree days 1918  
Cooling Degree Days 0 0  
Month to date cooling degree days 0  
Year to date cooling degree days 1  
Moisture  
Dew Point 23 °F    
Average Humidity 85    
Maximum Humidity 89    
Minimum Humidity 80    
Precipitation  
Precipitation 0.00 in 0.20 in 1.66 in (1946)
Month to date precipitation 1.29  
Year to date precipitation 6.26  
Sea Level Pressure  
Sea Level Pressure 30.47 in    
Wind  
Wind Speed 15 mph (North)    
Max Wind Speed 20 mph    
Max Gust Speed 23 mph    
Visibility 10 miles    
Events      
T = Trace of Precipitation, MM = Missing Value Source: NWS Daily Summary

Daily Weather History Graph

Daily Weather History Graph

Search for Another Location

Airport:

Trip Planner

Search our weather history database for the weather conditions in past years. The results will help you decide how hot, cold, wet, or windy it might be!

Date:

Astronomy

Feb. 06, 2014 Rise Set
Actual Time 6:55 AM CST 5:38 PM CST
Civil Twilight 6:29 AM CST 6:04 PM CST
Nautical Twilight 6:00 AM CST 6:34 PM CST
Astronomical Twilight 5:31 AM CST 7:03 PM CST
Moon 11:11 AM CST (2/6) 12:11 AM CST (2/6)
Length of Visible Light 11h 35m
Length of Day
10h 43m
Waxing Crescent, 49% of the Moon is Illuminated
Feb 6
Waxing Crescent
Feb 6
First Quarter
Feb 14
Full
Feb 22
Last Quarter
Mar 1
New

Hourly Weather History & Observations

Time (CST) Temp. Windchill Dew Point Humidity Pressure Visibility Wind Dir Wind Speed Gust Speed Precip Events Conditions
12:15 AM 29.8 °F 19.3 °F 24.4 °F 80% 30.45 in 10.0 mi North 13.8 mph - N/A   Overcast
12:35 AM 29.8 °F 19.8 °F 24.6 °F 81% 30.44 in 10.0 mi NNE 12.7 mph - N/A   Overcast
12:55 AM 29.8 °F 18.9 °F 24.8 °F 81% 30.43 in 10.0 mi North 15.0 mph - N/A   Overcast
1:15 AM 29.8 °F 18.9 °F 25.5 °F 84% 30.43 in 10.0 mi North 15.0 mph - N/A   Overcast
1:35 AM 29.8 °F 18.4 °F 25.2 °F 83% 30.43 in 10.0 mi North 16.1 mph - N/A   Overcast
1:55 AM 29.7 °F 18.6 °F 25.3 °F 84% 30.43 in 10.0 mi North 15.0 mph - N/A   Overcast
2:15 AM 29.7 °F 19.6 °F 25.5 °F 85% 30.43 in 10.0 mi North 12.7 mph - N/A   Overcast
2:35 AM 29.1 °F 17.1 °F 25.5 °F 86% 30.43 in 10.0 mi North 17.3 mph 21.9 mph N/A   Overcast
2:55 AM 29.1 °F 17.9 °F 25.5 °F 86% 30.43 in 10.0 mi North 15.0 mph - N/A   Overcast
3:15 AM 28.9 °F 16.9 °F 25.5 °F 87% 30.43 in 10.0 mi North 17.3 mph - N/A   Overcast
3:35 AM 28.9 °F 17.7 °F 25.3 °F 86% 30.45 in 10.0 mi North 15.0 mph 19.6 mph N/A   Overcast
3:55 AM 28.6 °F 17.7 °F 25.3 °F 88% 30.44 in 10.0 mi North 13.8 mph 20.7 mph N/A   Overcast
4:15 AM 28.4 °F 16.2 °F 25.5 °F 89% 30.43 in 10.0 mi North 17.3 mph - N/A   Overcast
4:35 AM 28.4 °F 17.5 °F 25.3 °F 88% 30.44 in 10.0 mi North 13.8 mph - N/A   Overcast
4:55 AM 28.8 °F 15.9 °F 24.8 °F 85% 30.45 in 10.0 mi North 19.6 mph 23.0 mph N/A   Overcast
5:15 AM 28.4 °F 15.8 °F 23.7 °F 83% 30.45 in 10.0 mi NNE 18.4 mph - N/A   Overcast
5:35 AM 28.4 °F 15.8 °F 23.5 °F 82% 30.47 in 10.0 mi North 18.4 mph - N/A   Overcast
5:55 AM 28.2 °F 16.3 °F 23.4 °F 82% 30.47 in 10.0 mi North 16.1 mph - N/A   Overcast
6:15 AM 28.0 °F 15.3 °F 23.4 °F 83% 30.47 in 10.0 mi North 18.4 mph 23.0 mph N/A   Overcast
6:35 AM 27.9 °F 15.1 °F 23.5 °F 84% 30.49 in 10.0 mi North 18.4 mph - N/A   Overcast
6:55 AM 27.5 °F 15.0 °F 23.9 °F 86% 30.49 in 10.0 mi NNE 17.3 mph 20.7 mph N/A   Overcast
7:15 AM 27.5 °F 16.3 °F 23.5 °F 85% 30.49 in 10.0 mi NNE 13.8 mph - N/A   Overcast
7:35 AM 27.3 °F 15.6 °F 23.5 °F 86% 30.50 in 10.0 mi NNE 15.0 mph - N/A   Overcast
7:55 AM 27.1 °F 14.5 °F 23.5 °F 86% 30.51 in 10.0 mi NNE 17.3 mph - N/A   Overcast
8:15 AM 27.0 °F 14.3 °F 23.0 °F 85% 30.51 in 7.0 mi North 17.3 mph - N/A   Overcast
8:35 AM 27.0 °F 15.2 °F 23.5 °F 87% 30.52 in 7.0 mi North 15.0 mph - N/A   Overcast
8:55 AM 26.6 °F 14.3 °F 23.0 °F 86% 30.53 in 10.0 mi North 16.1 mph - N/A   Overcast
9:15 AM 26.6 °F 14.3 °F 22.5 °F 84% 30.53 in 10.0 mi North 16.1 mph - N/A   Overcast
9:35 AM 26.6 °F 14.3 °F 21.7 °F 82% 30.52 in 10.0 mi NNE 16.1 mph - N/A   Overcast
9:55 AM 26.4 °F 14.0 °F 21.9 °F 83% 30.51 in 10.0 mi NNE 16.1 mph - N/A   Overcast
10:15 AM 26.2 °F 13.4 °F 21.9 °F 84% 30.52 in 10.0 mi NNE 17.3 mph 21.9 mph N/A   Overcast
10:35 AM 26.4 °F 14.5 °F 22.3 °F 84% 30.51 in 10.0 mi North 15.0 mph - N/A   Overcast
10:55 AM 26.2 °F 13.8 °F 22.1 °F 84% 30.50 in 10.0 mi North 16.1 mph - N/A   Overcast
11:15 AM 26.6 °F 14.3 °F 22.1 °F 83% 30.51 in 10.0 mi North 16.1 mph - N/A   Overcast
11:35 AM 26.2 °F 14.2 °F 21.7 °F 83% 30.52 in 10.0 mi North 15.0 mph - N/A   Overcast
11:55 AM 26.1 °F 15.0 °F 21.7 °F 84% 30.52 in 10.0 mi North 12.7 mph - N/A   Overcast
12:15 PM 26.1 °F 14.5 °F 21.7 °F 84% 30.50 in 10.0 mi North 13.8 mph - N/A   Overcast
12:35 PM 25.9 °F 16.0 °F 21.4 °F 83% 30.50 in 10.0 mi North 10.4 mph - N/A   Overcast
12:55 PM 25.9 °F 14.8 °F 21.4 °F 83% 30.48 in 10.0 mi North 12.7 mph - N/A   Overcast
1:15 PM 25.9 °F 14.8 °F 21.7 °F 84% 30.48 in 10.0 mi North 12.7 mph - N/A   Overcast
1:35 PM 26.2 °F 15.2 °F 21.6 °F 82% 30.48 in 10.0 mi North 12.7 mph - N/A   Overcast
1:55 PM 26.4 °F 14.5 °F 21.6 °F 82% 30.47 in 10.0 mi North 15.0 mph - N/A   Overcast
2:15 PM 26.6 °F 15.2 °F 21.4 °F 81% 30.46 in 10.0 mi North 13.8 mph - N/A   Overcast
2:35 PM 26.6 °F 15.2 °F 21.6 °F 81% 30.47 in 10.0 mi North 13.8 mph - N/A   Overcast
2:55 PM 26.8 °F 15.4 °F 21.4 °F 80% 30.47 in 10.0 mi North 13.8 mph - N/A   Overcast
3:15 PM 26.6 °F 16.2 °F 22.3 °F 84% 30.46 in 10.0 mi North 11.5 mph - N/A   Overcast
3:35 PM 26.6 °F 15.2 °F 22.3 °F 84% 30.48 in 10.0 mi North 13.8 mph - N/A   Overcast
3:55 PM 26.2 °F 15.8 °F 21.9 °F 84% 30.48 in 10.0 mi North 11.5 mph - N/A   Overcast
4:15 PM 26.4 °F 14.5 °F 21.9 °F 83% 30.46 in 10.0 mi North 15.0 mph - N/A   Overcast
4:35 PM 26.6 °F 14.7 °F 21.7 °F 82% 30.46 in 10.0 mi North 15.0 mph - N/A   Overcast
4:55 PM 26.2 °F 14.7 °F 21.7 °F 83% 30.46 in 10.0 mi North 13.8 mph - N/A   Overcast
5:15 PM 26.2 °F 14.2 °F 22.3 °F 85% 30.45 in 10.0 mi North 15.0 mph - N/A   Overcast
5:35 PM 26.1 °F 13.6 °F 22.1 °F 85% 30.44 in 10.0 mi North 16.1 mph - N/A   Mostly Cloudy
5:55 PM 25.7 °F 12.3 °F 21.9 °F 86% 30.43 in 10.0 mi North 18.4 mph - N/A   Overcast
6:15 PM 25.5 °F 13.3 °F 21.7 °F 86% 30.44 in 10.0 mi North 15.0 mph - N/A   Overcast
6:35 PM 25.3 °F 12.2 °F 21.6 °F 86% 30.44 in 10.0 mi North 17.3 mph - N/A   Overcast
6:55 PM 25.2 °F 12.9 °F 21.4 °F 86% 30.45 in 10.0 mi North 15.0 mph - N/A   Overcast
7:15 PM 24.8 °F 11.9 °F 21.2 °F 86% 30.44 in 10.0 mi North 16.1 mph 19.6 mph N/A   Mostly Cloudy
7:35 PM 24.6 °F 14.4 °F 21.4 °F 87% 30.44 in 10.0 mi NNE 10.4 mph - N/A   Mostly Cloudy
7:55 PM 24.6 °F 12.7 °F 21.4 °F 87% 30.44 in 10.0 mi NNE 13.8 mph - N/A   Overcast
8:15 PM 24.4 °F 14.2 °F 21.4 °F 88% 30.44 in 10.0 mi NNE 10.4 mph 16.1 mph N/A   Mostly Cloudy
8:35 PM 24.8 °F 12.9 °F 21.6 °F 87% 30.45 in 10.0 mi NNE 13.8 mph - N/A   Mostly Cloudy
8:55 PM 24.8 °F 12.4 °F 21.6 °F 87% 30.45 in 10.0 mi North 15.0 mph - N/A   Overcast
9:15 PM 24.8 °F 14.0 °F 21.6 °F 87% 30.47 in 10.0 mi North 11.5 mph - N/A   Overcast
9:35 PM 24.8 °F 14.0 °F 21.4 °F 87% 30.47 in 10.0 mi North 11.5 mph - N/A   Overcast
9:55 PM 24.4 °F 13.0 °F 20.8 °F 86% 30.45 in 10.0 mi North 12.7 mph - N/A   Overcast
10:15 PM 24.4 °F 13.5 °F 21.0 °F 87% 30.45 in 10.0 mi NNE 11.5 mph - N/A   Overcast
10:35 PM 24.4 °F 13.5 °F 21.2 °F 87% 30.45 in 10.0 mi North 11.5 mph - N/A   Overcast
10:55 PM 24.1 °F 12.0 °F 20.8 °F 87% 30.46 in 10.0 mi North 13.8 mph - N/A   Overcast
11:15 PM 24.1 °F 12.5 °F 20.8 °F 87% 30.45 in 10.0 mi North 12.7 mph - N/A   Overcast
11:35 PM 24.1 °F 12.5 °F 21.0 °F 88% 30.44 in 10.0 mi NNE 12.7 mph - N/A   Overcast
11:55 PM 24.1 °F 14.4 °F 21.0 °F 88% 30.43 in 10.0 mi NNE 9.2 mph - N/A   Overcast